Year,Month,Day,Hour,Minute,Value (Times are PST for temperature in C)
2008,08,26,00,00,12.30
2008,08,26,00,01,12.40
2008,08,26,00,02,12.40
2008,08,26,00,03,12.40
2008,08,26,00,04,12.40
2008,08,26,00,05,12.40
2008,08,26,00,06,12.30
2008,08,26,00,07,12.30
2008,08,26,00,08,12.30
2008,08,26,00,09,12.20
2008,08,26,00,10,12.20
2008,08,26,00,11,12.20
2008,08,26,00,12,12.10
2008,08,26,00,13,12.10
2008,08,26,00,14,12.10
2008,08,26,00,15,12.10
2008,08,26,00,16,12.10
2008,08,26,00,17,12.10
2008,08,26,00,18,12.00
2008,08,26,00,19,12.00
2008,08,26,00,20,11.90
2008,08,26,00,21,11.80
2008,08,26,00,22,11.80
2008,08,26,00,23,11.70
2008,08,26,00,24,11.60
2008,08,26,00,25,11.40
2008,08,26,00,26,11.30
2008,08,26,00,27,11.30
2008,08,26,00,28,11.20
2008,08,26,00,29,11.20
2008,08,26,00,30,11.10
2008,08,26,00,31,11.10
2008,08,26,00,32,11.10
2008,08,26,00,33,11.10
2008,08,26,00,34,11.10
2008,08,26,00,35,11.10
2008,08,26,00,36,11.10
2008,08,26,00,37,11.10
2008,08,26,00,38,11.10
2008,08,26,00,39,11.10
2008,08,26,00,40,11.10
2008,08,26,00,41,11.00
2008,08,26,00,42,11.00
2008,08,26,00,43,11.00
2008,08,26,00,44,11.00
2008,08,26,00,45,10.90
2008,08,26,00,46,10.90
2008,08,26,00,47,10.80
2008,08,26,00,48,10.80
2008,08,26,01,02,10.40
2008,08,26,01,03,10.30
2008,08,26,01,04,10.30
2008,08,26,01,05,10.20
2008,08,26,01,06,10.20
2008,08,26,01,07,10.10
2008,08,26,01,08,10.10
2008,08,26,01,09,10.00
2008,08,26,01,10,10.00
2008,08,26,01,11,10.00
2008,08,26,01,12,10.00
2008,08,26,01,13,10.10
2008,08,26,01,14,10.10
2008,08,26,01,15,10.10
2008,08,26,01,16,10.10
2008,08,26,01,17,10.00
2008,08,26,01,18,10.00
2008,08,26,01,19,10.00
2008,08,26,01,20,9.90
2008,08,26,01,21,9.90
2008,08,26,01,22,9.90
2008,08,26,01,23,9.90
2008,08,26,01,24,9.80
2008,08,26,01,25,9.80
2008,08,26,01,26,9.70
2008,08,26,01,27,9.70
2008,08,26,01,28,9.70
2008,08,26,01,29,9.60
2008,08,26,01,30,9.60
2008,08,26,01,31,9.60
2008,08,26,01,32,9.60
2008,08,26,01,33,9.60
2008,08,26,01,34,9.60
2008,08,26,01,35,9.60
2008,08,26,01,36,9.60
2008,08,26,01,37,9.60
2008,08,26,01,38,9.60
2008,08,26,01,39,9.60
2008,08,26,01,40,9.60
2008,08,26,01,41,9.60
2008,08,26,01,42,9.60
2008,08,26,01,43,9.60
2008,08,26,01,44,9.60
2008,08,26,01,45,9.60
2008,08,26,01,46,9.60
2008,08,26,01,47,9.60
2008,08,26,01,48,9.60
2008,08,26,01,49,9.60
2008,08,26,01,50,9.60
2008,08,26,01,51,9.60
2008,08,26,01,52,9.60
2008,08,26,01,53,9.50
2008,08,26,01,54,9.50
2008,08,26,01,55,9.50
2008,08,26,01,56,9.50
2008,08,26,01,57,9.50
2008,08,26,01,58,9.50
2008,08,26,01,59,9.50
2008,08,26,02,00,9.50
2008,08,26,02,01,9.60
2008,08,26,02,02,9.60
2008,08,26,02,03,9.60
2008,08,26,02,04,9.60
2008,08,26,02,05,9.60
2008,08,26,02,06,9.60
2008,08,26,02,07,9.60
2008,08,26,02,08,9.60
2008,08,26,02,09,9.60
2008,08,26,02,10,9.60
2008,08,26,02,11,9.60
2008,08,26,02,12,9.60
2008,08,26,02,13,9.60
2008,08,26,02,14,9.60
2008,08,26,02,15,9.60
2008,08,26,02,16,9.60
2008,08,26,02,17,9.60
2008,08,26,02,18,9.60
2008,08,26,02,19,9.60
2008,08,26,02,20,9.60
2008,08,26,02,21,9.60
2008,08,26,02,22,9.60
2008,08,26,02,23,9.60
2008,08,26,02,24,9.60
2008,08,26,02,25,9.50
2008,08,26,02,26,9.50
2008,08,26,02,27,9.50
2008,08,26,02,28,9.50
2008,08,26,02,29,9.50
2008,08,26,02,30,9.50
2008,08,26,02,31,9.50
2008,08,26,02,32,9.50
2008,08,26,02,33,9.50
2008,08,26,02,34,9.50
2008,08,26,02,35,9.50
2008,08,26,02,36,9.50
2008,08,26,02,37,9.40
2008,08,26,02,38,9.40
2008,08,26,02,39,9.40
2008,08,26,02,40,9.40
2008,08,26,02,41,9.30
2008,08,26,02,42,9.30
2008,08,26,02,43,9.30
2008,08,26,02,44,9.30
2008,08,26,02,45,9.20
2008,08,26,02,46,9.20
2008,08,26,02,47,9.20
2008,08,26,02,48,9.20
2008,08,26,02,49,9.20
2008,08,26,02,50,9.20
2008,08,26,02,51,9.20
2008,08,26,02,52,9.20
2008,08,26,02,53,9.20
2008,08,26,02,54,9.20
2008,08,26,02,55,9.20
2008,08,26,02,56,9.20
2008,08,26,02,57,9.20
2008,08,26,02,58,9.20
2008,08,26,02,59,9.20
2008,08,26,03,00,9.20
2008,08,26,03,01,9.20
2008,08,26,03,02,9.20
2008,08,26,03,03,9.30
2008,08,26,03,04,9.20
2008,08,26,03,05,9.20
2008,08,26,03,06,9.20
2008,08,26,03,07,9.20
2008,08,26,03,08,9.30
2008,08,26,03,09,9.30
2008,08,26,03,10,9.30
2008,08,26,03,11,9.30
2008,08,26,03,12,9.30
2008,08,26,03,13,9.30
2008,08,26,03,14,9.30
2008,08,26,03,15,9.30
2008,08,26,03,16,9.20
2008,08,26,03,17,9.20
2008,08,26,03,18,9.20
2008,08,26,03,19,9.20
2008,08,26,03,20,9.10
2008,08,26,03,21,9.10
2008,08,26,03,22,9.00
2008,08,26,03,23,9.00
2008,08,26,03,24,9.00
2008,08,26,03,25,9.00
2008,08,26,03,26,8.90
2008,08,26,03,27,8.90
2008,08,26,03,28,8.90
2008,08,26,03,29,8.90
2008,08,26,03,30,8.90
2008,08,26,03,31,8.90
2008,08,26,03,32,8.90
2008,08,26,03,33,8.90
2008,08,26,03,34,8.90
2008,08,26,03,35,8.80
2008,08,26,03,36,8.80
2008,08,26,03,37,8.80
2008,08,26,03,38,8.80
2008,08,26,03,39,8.80
2008,08,26,03,40,8.80
2008,08,26,03,41,8.80
2008,08,26,03,42,8.80
2008,08,26,03,43,8.80
2008,08,26,03,44,8.80
2008,08,26,03,45,8.70
2008,08,26,03,46,8.70
2008,08,26,03,47,8.70
2008,08,26,03,48,8.70
2008,08,26,03,49,8.70
2008,08,26,03,50,8.70
2008,08,26,03,51,8.70
2008,08,26,03,52,8.70
2008,08,26,03,53,8.70
2008,08,26,03,54,8.70
2008,08,26,03,55,8.70
2008,08,26,03,56,8.70
2008,08,26,03,57,8.70
2008,08,26,03,58,8.60
2008,08,26,03,59,8.60
2008,08,26,04,00,8.70
2008,08,26,04,01,8.70
2008,08,26,04,02,8.70
2008,08,26,04,03,8.70
2008,08,26,04,04,8.70
2008,08,26,04,05,8.70
2008,08,26,04,06,8.70
2008,08,26,04,07,8.70
2008,08,26,04,08,8.70
2008,08,26,04,09,8.70
2008,08,26,04,10,8.70
2008,08,26,04,11,8.70
2008,08,26,04,12,8.70
2008,08,26,04,13,8.70
2008,08,26,04,14,8.70
2008,08,26,04,15,8.70
2008,08,26,04,16,8.70
2008,08,26,04,17,8.70
2008,08,26,04,18,8.70
2008,08,26,04,19,8.70
2008,08,26,04,20,8.70
2008,08,26,04,21,8.70
2008,08,26,04,22,8.60
2008,08,26,04,23,8.60
2008,08,26,04,24,8.60
2008,08,26,04,25,8.60
2008,08,26,04,26,8.60
2008,08,26,04,27,8.60
2008,08,26,04,28,8.50
2008,08,26,04,29,8.50
2008,08,26,04,30,8.50
2008,08,26,04,31,8.40
2008,08,26,04,32,8.40
2008,08,26,04,33,8.40
2008,08,26,04,34,8.30
2008,08,26,04,35,8.30
2008,08,26,04,36,8.30
2008,08,26,04,37,8.20
2008,08,26,04,38,8.20
2008,08,26,04,39,8.20
2008,08,26,04,40,8.20
2008,08,26,04,41,8.20
2008,08,26,04,42,8.20
2008,08,26,04,43,8.20
2008,08,26,04,44,8.20
2008,08,26,04,45,8.20
2008,08,26,04,46,8.20
2008,08,26,04,47,8.10
2008,08,26,04,48,8.10
2008,08,26,04,49,8.20
2008,08,26,04,50,8.20
2008,08,26,04,51,8.20
2008,08,26,04,52,8.20
2008,08,26,04,53,8.20
2008,08,26,04,54,8.20
2008,08,26,04,55,8.20
2008,08,26,04,56,8.10
2008,08,26,04,57,8.10
2008,08,26,04,58,8.10
2008,08,26,04,59,8.10
2008,08,26,05,00,8.10
2008,08,26,05,01,8.10
2008,08,26,05,02,8.10
2008,08,26,05,03,8.10
2008,08,26,05,04,8.10
2008,08,26,05,05,8.10
2008,08,26,05,06,8.10
2008,08,26,05,07,8.10
2008,08,26,05,08,8.10
2008,08,26,05,09,8.10
2008,08,26,05,10,8.10
2008,08,26,05,11,8.10
2008,08,26,05,12,8.10
2008,08,26,05,13,8.10
2008,08,26,05,14,8.10
2008,08,26,05,15,8.10
2008,08,26,05,16,8.10
2008,08,26,05,17,8.10
2008,08,26,05,18,8.10
2008,08,26,05,19,8.10
2008,08,26,05,20,8.00
2008,08,26,05,21,8.00
2008,08,26,05,22,8.00
2008,08,26,05,23,8.00
2008,08,26,05,24,8.10
2008,08,26,05,25,8.10
2008,08,26,05,26,8.00
2008,08,26,05,27,8.00
2008,08,26,05,28,8.00
2008,08,26,05,29,8.00
2008,08,26,05,30,7.90
2008,08,26,05,31,7.90
2008,08,26,05,32,7.90
2008,08,26,05,33,7.90
2008,08,26,05,34,7.90
2008,08,26,05,35,7.90
2008,08,26,05,36,7.90
2008,08,26,05,37,7.90
2008,08,26,05,38,7.90
2008,08,26,05,39,7.80
2008,08,26,05,40,7.80
2008,08,26,05,41,7.80
2008,08,26,05,42,7.80
2008,08,26,05,43,7.80
2008,08,26,05,44,7.80
2008,08,26,05,45,7.80
2008,08,26,05,46,7.80
2008,08,26,05,47,7.80
2008,08,26,05,48,7.80
2008,08,26,05,49,7.80
2008,08,26,05,50,7.80
2008,08,26,05,51,7.80
2008,08,26,05,52,7.80
2008,08,26,05,53,7.80
2008,08,26,05,54,7.80
2008,08,26,05,55,7.80
2008,08,26,05,56,7.80
2008,08,26,05,57,7.70
2008,08,26,05,58,7.70
2008,08,26,05,59,7.70
2008,08,26,06,00,7.70
2008,08,26,06,01,7.70
2008,08,26,06,02,7.60
2008,08,26,06,03,7.60
2008,08,26,06,04,7.60
2008,08,26,06,05,7.60
2008,08,26,06,06,7.60
2008,08,26,06,07,7.60
2008,08,26,06,08,7.60
2008,08,26,06,09,7.60
2008,08,26,06,10,7.60
2008,08,26,06,11,7.60
2008,08,26,06,12,7.50
2008,08,26,06,13,7.50
2008,08,26,06,14,7.50
2008,08,26,06,15,7.60
2008,08,26,06,16,7.50
2008,08,26,06,17,7.60
2008,08,26,06,18,7.60
2008,08,26,06,19,7.60
2008,08,26,06,20,7.60
2008,08,26,06,21,7.60
2008,08,26,06,22,7.60
2008,08,26,06,23,7.60
2008,08,26,06,24,7.70
2008,08,26,06,25,7.70
2008,08,26,06,26,7.70
2008,08,26,06,27,7.70
2008,08,26,06,28,7.70
2008,08,26,06,29,7.70
2008,08,26,06,30,7.70
2008,08,26,06,31,7.70
2008,08,26,06,32,7.70
2008,08,26,06,33,7.70
2008,08,26,06,34,7.70
2008,08,26,06,35,7.70
2008,08,26,06,36,7.60
2008,08,26,06,37,7.60
2008,08,26,06,38,7.60
2008,08,26,06,39,7.60
2008,08,26,06,40,7.50
2008,08,26,06,41,7.50
2008,08,26,06,42,7.50
2008,08,26,06,43,7.50
2008,08,26,06,44,7.50
2008,08,26,06,45,7.50
2008,08,26,06,46,7.50
2008,08,26,06,47,7.50
2008,08,26,06,48,7.50
2008,08,26,06,49,7.50
2008,08,26,06,50,7.50
2008,08,26,06,51,7.50
2008,08,26,06,52,7.50
2008,08,26,06,53,7.50
2008,08,26,06,54,7.50
2008,08,26,06,55,7.60
2008,08,26,06,56,7.60
2008,08,26,06,57,7.60
2008,08,26,06,58,7.60
2008,08,26,06,59,7.60
2008,08,26,07,00,7.60
2008,08,26,07,01,7.70
2008,08,26,07,02,7.70
2008,08,26,07,03,7.70
2008,08,26,07,04,7.80
2008,08,26,07,05,7.80
2008,08,26,07,06,7.80
2008,08,26,07,07,7.80
2008,08,26,07,08,7.90
2008,08,26,07,09,7.90
2008,08,26,07,10,7.90
2008,08,26,07,11,8.00
2008,08,26,07,12,8.00
2008,08,26,07,13,8.00
2008,08,26,07,14,8.10
2008,08,26,07,15,8.10
2008,08,26,07,16,8.10
2008,08,26,07,17,8.20
2008,08,26,07,18,8.20
2008,08,26,07,19,8.30
2008,08,26,07,20,8.30
2008,08,26,07,21,8.40
2008,08,26,07,22,8.50
2008,08,26,07,23,8.50
2008,08,26,07,24,8.60
2008,08,26,07,25,8.60
2008,08,26,07,26,8.60
2008,08,26,07,27,8.60
2008,08,26,07,28,8.70
2008,08,26,07,29,8.70
2008,08,26,07,30,8.80
2008,08,26,07,31,8.80
2008,08,26,07,32,8.90
2008,08,26,07,33,8.90
2008,08,26,07,34,9.00
2008,08,26,07,35,9.10
2008,08,26,07,36,9.20
2008,08,26,07,37,9.30
2008,08,26,07,38,9.40
2008,08,26,07,39,9.50
2008,08,26,07,40,9.60
2008,08,26,07,41,9.60
2008,08,26,07,42,9.70
2008,08,26,07,43,9.70
2008,08,26,07,44,9.80
2008,08,26,07,45,9.90
2008,08,26,07,46,10.00
2008,08,26,07,47,10.00
2008,08,26,07,48,10.10
2008,08,26,07,49,10.10
2008,08,26,07,50,10.20
2008,08,26,07,51,10.20
2008,08,26,07,52,10.20
2008,08,26,07,53,10.20
2008,08,26,07,54,10.30
2008,08,26,07,55,10.30
2008,08,26,07,56,10.40
2008,08,26,07,57,10.60
2008,08,26,07,58,10.60
2008,08,26,07,59,10.70
2008,08,26,08,00,10.80
2008,08,26,08,01,10.80
2008,08,26,08,02,10.90
2008,08,26,08,03,10.90
2008,08,26,08,04,11.00
2008,08,26,08,05,11.10
2008,08,26,08,06,11.10
2008,08,26,08,07,11.10
2008,08,26,08,08,11.20
2008,08,26,08,09,11.20
2008,08,26,08,10,11.30
2008,08,26,08,11,11.40
2008,08,26,08,12,11.50
2008,08,26,08,13,11.60
2008,08,26,08,14,11.70
2008,08,26,08,15,11.80
2008,08,26,08,16,12.00
2008,08,26,08,17,12.10
2008,08,26,08,18,12.20
2008,08,26,08,19,12.30
2008,08,26,08,20,12.40
2008,08,26,08,21,12.50
2008,08,26,08,22,12.60
2008,08,26,08,23,12.70
2008,08,26,08,24,12.80
2008,08,26,08,25,12.90
2008,08,26,08,26,12.90
2008,08,26,08,27,13.00
2008,08,26,08,28,13.10
2008,08,26,08,29,13.20
2008,08,26,08,30,13.20
2008,08,26,08,31,13.30
2008,08,26,08,32,13.40
2008,08,26,08,33,13.50
2008,08,26,08,34,13.70
2008,08,26,08,35,13.80
2008,08,26,08,36,13.90
2008,08,26,08,37,14.10
2008,08,26,08,38,14.20
2008,08,26,08,39,14.30
2008,08,26,08,40,14.40
2008,08,26,08,41,14.40
2008,08,26,08,42,14.40
2008,08,26,08,43,14.40
2008,08,26,08,44,14.40
2008,08,26,08,45,14.40
2008,08,26,08,46,14.40
2008,08,26,08,47,14.50
2008,08,26,08,48,14.60
2008,08,26,08,49,14.60
2008,08,26,08,50,14.60
2008,08,26,08,51,14.70
2008,08,26,08,52,14.80
2008,08,26,08,53,14.90
2008,08,26,08,54,15.00
2008,08,26,08,55,14.90
2008,08,26,08,56,14.90
2008,08,26,08,57,14.90
2008,08,26,08,58,14.90
2008,08,26,08,59,14.90
2008,08,26,09,00,14.70
2008,08,26,09,01,14.60
2008,08,26,09,02,14.50
2008,08,26,09,03,14.40
2008,08,26,09,04,14.30
2008,08,26,09,05,14.20
2008,08,26,09,06,14.10
2008,08,26,09,07,14.10
2008,08,26,09,08,14.10
2008,08,26,09,09,14.10
2008,08,26,09,10,14.20
2008,08,26,09,11,14.20
2008,08,26,09,12,14.30
2008,08,26,09,13,14.40
2008,08,26,09,14,14.50
2008,08,26,09,15,14.60
2008,08,26,09,16,14.70
2008,08,26,09,17,14.80
2008,08,26,09,18,14.80
2008,08,26,09,19,14.90
2008,08,26,09,20,14.90
2008,08,26,09,21,15.00
2008,08,26,09,22,14.90
2008,08,26,09,23,14.80
2008,08,26,09,24,14.80
2008,08,26,09,25,14.70
2008,08,26,09,26,14.70
2008,08,26,09,27,14.70
2008,08,26,09,28,14.70
2008,08,26,09,29,14.70
2008,08,26,09,30,14.70
2008,08,26,09,31,14.70
2008,08,26,09,32,14.80
2008,08,26,09,33,14.80
2008,08,26,09,34,14.80
2008,08,26,09,35,14.90
2008,08,26,09,36,15.00
2008,08,26,09,37,15.00
2008,08,26,09,38,14.90
2008,08,26,09,39,14.80
2008,08,26,09,40,14.70
2008,08,26,09,41,14.70
2008,08,26,09,42,14.80
2008,08,26,09,43,14.80
2008,08,26,09,44,15.00
2008,08,26,09,45,15.00
2008,08,26,09,46,15.00
2008,08,26,09,47,15.10
2008,08,26,09,48,15.30
2008,08,26,09,49,15.30
2008,08,26,09,50,15.30
2008,08,26,09,51,15.30
2008,08,26,09,52,15.30
2008,08,26,09,53,15.30
2008,08,26,09,54,15.40
2008,08,26,09,55,15.50
2008,08,26,09,56,15.50
2008,08,26,09,57,15.60
2008,08,26,09,58,15.60
2008,08,26,09,59,15.70
2008,08,26,10,00,15.70
2008,08,26,10,01,15.80
2008,08,26,10,02,15.80
2008,08,26,10,03,15.90
2008,08,26,10,04,15.90
2008,08,26,10,05,15.90
2008,08,26,10,06,16.00
2008,08,26,10,07,16.10
2008,08,26,10,08,16.10
2008,08,26,10,09,16.20
2008,08,26,10,10,16.20
2008,08,26,10,11,16.20
2008,08,26,10,12,16.20
2008,08,26,10,13,16.30
2008,08,26,10,14,16.30
2008,08,26,10,15,16.40
2008,08,26,10,16,16.40
2008,08,26,10,17,16.50
2008,08,26,10,18,16.50
2008,08,26,10,19,16.50
2008,08,26,10,20,16.50
2008,08,26,10,21,16.50
2008,08,26,10,22,16.60
2008,08,26,10,23,16.60
2008,08,26,10,24,16.60
2008,08,26,10,25,16.60
2008,08,26,10,26,16.70
2008,08,26,10,27,16.70
2008,08,26,10,28,16.70
2008,08,26,10,29,16.80
2008,08,26,10,30,16.80
2008,08,26,10,31,16.80
2008,08,26,10,32,16.80
2008,08,26,10,33,16.70
2008,08,26,10,34,16.80
2008,08,26,10,35,16.80
2008,08,26,10,36,16.80
2008,08,26,10,37,16.90
2008,08,26,10,38,16.90
2008,08,26,10,39,16.90
2008,08,26,10,40,16.90
2008,08,26,10,41,16.80
2008,08,26,10,42,16.80
2008,08,26,10,43,16.80
2008,08,26,10,44,16.80
2008,08,26,10,45,16.80
2008,08,26,10,46,16.70
2008,08,26,10,47,16.70
2008,08,26,10,48,16.70
2008,08,26,10,49,16.70
2008,08,26,10,50,16.80
2008,08,26,10,51,16.80
2008,08,26,10,52,16.80
2008,08,26,10,53,16.80
2008,08,26,10,54,16.70
2008,08,26,10,55,16.60
2008,08,26,10,56,16.50
2008,08,26,10,57,16.40
2008,08,26,10,58,16.30
2008,08,26,10,59,16.30
2008,08,26,11,00,16.20
2008,08,26,11,01,16.10
2008,08,26,11,02,16.20
2008,08,26,11,03,16.30
2008,08,26,11,04,16.30
2008,08,26,11,05,16.40
2008,08,26,11,06,16.40
2008,08,26,11,07,16.40
2008,08,26,11,08,16.50
2008,08,26,11,09,16.40
2008,08,26,11,10,16.40
2008,08,26,11,11,16.40
2008,08,26,11,12,16.40
2008,08,26,11,13,16.30
2008,08,26,11,14,16.20
2008,08,26,11,15,16.10
2008,08,26,11,16,16.10
2008,08,26,11,17,16.00
2008,08,26,11,18,15.90
2008,08,26,11,19,15.80
2008,08,26,11,20,15.70
2008,08,26,11,21,15.70
2008,08,26,11,22,15.70
2008,08,26,11,23,15.70
2008,08,26,11,24,15.80
2008,08,26,11,25,15.90
2008,08,26,11,26,16.10
2008,08,26,11,27,16.10
2008,08,26,11,28,16.20
2008,08,26,11,29,16.30
2008,08,26,11,30,16.40
2008,08,26,11,31,16.40
2008,08,26,11,32,16.40
2008,08,26,11,33,16.50
2008,08,26,11,34,16.60
2008,08,26,11,35,16.60
2008,08,26,11,36,16.60
2008,08,26,11,37,16.70
2008,08,26,11,38,16.70
2008,08,26,11,39,16.60
2008,08,26,11,40,16.50
2008,08,26,11,41,16.30
2008,08,26,11,42,16.20
2008,08,26,11,43,16.20
2008,08,26,11,44,16.10
2008,08,26,11,45,16.00
2008,08,26,11,46,15.90
2008,08,26,11,47,15.90
2008,08,26,11,48,15.80
2008,08,26,11,49,15.80
2008,08,26,11,50,15.90
2008,08,26,11,51,15.90
2008,08,26,11,52,15.90
2008,08,26,11,53,15.90
2008,08,26,11,54,15.90
2008,08,26,11,55,15.80
2008,08,26,11,56,15.70
2008,08,26,11,57,15.60
2008,08,26,11,58,15.50
2008,08,26,11,59,15.40
2008,08,26,12,00,15.40
2008,08,26,12,01,15.40
2008,08,26,12,02,15.40
2008,08,26,12,03,15.40
2008,08,26,12,04,15.50
2008,08,26,12,05,15.50
2008,08,26,12,06,15.50
2008,08,26,12,07,15.60
2008,08,26,12,08,15.60
2008,08,26,12,09,15.60
2008,08,26,12,10,15.50
2008,08,26,12,11,15.50
2008,08,26,12,12,15.40
2008,08,26,12,13,15.40
2008,08,26,12,14,15.40
2008,08,26,12,15,15.40
2008,08,26,12,16,15.40
2008,08,26,12,17,15.40
2008,08,26,12,18,15.40
2008,08,26,12,19,15.40
2008,08,26,12,20,15.40
2008,08,26,12,21,15.40
2008,08,26,12,22,15.50
2008,08,26,12,23,15.60
2008,08,26,12,24,15.60
2008,08,26,12,25,15.70
2008,08,26,12,26,15.70
2008,08,26,12,27,15.70
2008,08,26,12,28,15.60
2008,08,26,12,29,15.60
2008,08,26,12,30,15.70
2008,08,26,12,31,15.70
2008,08,26,12,32,15.70
2008,08,26,12,33,15.70
2008,08,26,12,34,15.80
2008,08,26,12,35,15.90
2008,08,26,12,36,15.90
2008,08,26,12,37,16.00
2008,08,26,12,38,16.00
2008,08,26,12,39,16.00
2008,08,26,12,40,16.00
2008,08,26,12,41,16.00
2008,08,26,12,42,16.00
2008,08,26,12,43,16.00
2008,08,26,12,44,16.00
2008,08,26,12,45,16.10
2008,08,26,12,46,16.10
2008,08,26,12,47,16.10
2008,08,26,12,48,16.10
2008,08,26,12,49,16.10
2008,08,26,12,50,16.20
2008,08,26,12,51,16.20
2008,08,26,12,52,16.30
2008,08,26,12,53,16.30
2008,08,26,12,54,16.30
2008,08,26,12,55,16.30
2008,08,26,12,56,16.40
2008,08,26,12,57,16.40
2008,08,26,12,58,16.40
2008,08,26,12,59,16.40
2008,08,26,13,00,16.40
2008,08,26,13,01,16.50
2008,08,26,13,02,16.50
2008,08,26,13,03,16.60
2008,08,26,13,04,16.60
2008,08,26,13,05,16.60
2008,08,26,13,06,16.70
2008,08,26,13,07,16.70
2008,08,26,13,08,16.80
2008,08,26,13,09,16.80
2008,08,26,13,10,16.80
2008,08,26,13,11,16.80
2008,08,26,13,12,16.90
2008,08,26,13,13,16.90
2008,08,26,13,14,17.00
2008,08,26,13,15,17.10
2008,08,26,13,16,17.10
2008,08,26,13,17,17.10
2008,08,26,13,18,17.20
2008,08,26,13,19,17.20
2008,08,26,13,20,17.30
2008,08,26,13,21,17.30
2008,08,26,13,22,17.30
2008,08,26,13,23,17.30
2008,08,26,13,24,17.30
2008,08,26,13,25,17.30
2008,08,26,13,26,17.30
2008,08,26,13,27,17.40
2008,08,26,13,28,17.40
2008,08,26,13,29,17.50
2008,08,26,13,30,17.50
2008,08,26,13,31,17.60
2008,08,26,13,32,17.60
2008,08,26,13,33,17.60
2008,08,26,13,34,17.60
2008,08,26,13,35,17.60
2008,08,26,13,36,17.60
2008,08,26,13,37,17.60
2008,08,26,13,38,17.70
2008,08,26,13,39,17.80
2008,08,26,13,40,17.80
2008,08,26,13,41,17.90
2008,08,26,13,42,17.90
2008,08,26,13,43,18.00
2008,08,26,13,44,18.00
2008,08,26,13,45,18.00
2008,08,26,13,46,18.10
2008,08,26,13,47,18.10
2008,08,26,13,48,18.10
2008,08,26,13,49,18.10
2008,08,26,13,50,18.10
2008,08,26,13,51,18.10
2008,08,26,13,52,18.10
2008,08,26,13,53,18.10
2008,08,26,13,54,18.10
2008,08,26,13,55,18.20
2008,08,26,13,56,18.20
2008,08,26,13,57,18.20
2008,08,26,13,58,18.30
2008,08,26,13,59,18.30
2008,08,26,14,00,18.20
2008,08,26,14,01,18.20
2008,08,26,14,02,18.20
2008,08,26,14,03,18.20
2008,08,26,14,04,18.20
2008,08,26,14,05,18.20
2008,08,26,14,06,18.20
2008,08,26,14,07,18.30
2008,08,26,14,08,18.30
2008,08,26,14,09,18.40
2008,08,26,14,10,18.40
2008,08,26,14,11,18.40
2008,08,26,14,12,18.40
2008,08,26,14,13,18.30
2008,08,26,14,14,18.30
2008,08,26,14,15,18.40
2008,08,26,14,16,18.40
2008,08,26,14,17,18.40
2008,08,26,14,18,18.40
2008,08,26,14,19,18.40
2008,08,26,14,20,18.50
2008,08,26,14,21,18.50
2008,08,26,14,22,18.40
2008,08,26,14,23,18.40
2008,08,26,14,24,18.40
2008,08,26,14,25,18.40
2008,08,26,14,26,18.40
2008,08,26,14,27,18.50
2008,08,26,14,28,18.50
2008,08,26,14,29,18.60
2008,08,26,14,30,18.60
2008,08,26,14,31,18.60
2008,08,26,14,32,18.70
2008,08,26,14,33,18.70
2008,08,26,14,34,18.70
2008,08,26,14,35,18.60
2008,08,26,14,36,18.60
2008,08,26,14,37,18.60
2008,08,26,14,38,18.60
2008,08,26,14,39,18.50
2008,08,26,14,40,18.50
2008,08,26,14,41,18.60
2008,08,26,14,42,18.70
2008,08,26,14,43,18.80
2008,08,26,14,44,18.90
2008,08,26,14,45,19.00
2008,08,26,14,46,19.00
2008,08,26,14,47,18.80
2008,08,26,14,48,18.70
2008,08,26,14,49,18.60
2008,08,26,14,50,18.40
2008,08,26,14,51,18.20
2008,08,26,14,52,18.00
2008,08,26,14,53,17.90
2008,08,26,14,54,17.80
2008,08,26,14,55,17.90
2008,08,26,14,56,17.90
2008,08,26,14,57,18.00
2008,08,26,14,58,18.10
2008,08,26,14,59,18.10
2008,08,26,15,00,18.20
2008,08,26,15,01,18.10
2008,08,26,15,02,18.00
2008,08,26,15,03,17.90
2008,08,26,15,04,17.90
2008,08,26,15,05,17.80
2008,08,26,15,06,17.80
2008,08,26,15,07,17.80
2008,08,26,15,08,17.80
2008,08,26,15,09,17.70
2008,08,26,15,10,17.70
2008,08,26,15,11,17.80
2008,08,26,15,12,17.80
2008,08,26,15,13,17.70
2008,08,26,15,14,17.60
2008,08,26,15,15,17.60
2008,08,26,15,16,17.50
2008,08,26,15,17,17.40
2008,08,26,15,18,17.30
2008,08,26,15,19,17.30
2008,08,26,15,20,17.30
2008,08,26,15,21,17.30
2008,08,26,15,22,17.30
2008,08,26,15,23,17.30
2008,08,26,15,24,17.30
2008,08,26,15,25,17.20
2008,08,26,15,26,17.20
2008,08,26,15,27,17.20
2008,08,26,15,28,17.20
2008,08,26,15,29,17.20
2008,08,26,15,30,17.10
2008,08,26,15,31,17.10
2008,08,26,15,32,17.10
2008,08,26,15,33,17.20
2008,08,26,15,34,17.20
2008,08,26,15,35,17.10
2008,08,26,15,36,17.10
2008,08,26,15,37,17.10
2008,08,26,15,38,17.10
2008,08,26,15,39,17.00
2008,08,26,15,40,17.00
2008,08,26,15,41,16.90
2008,08,26,15,42,16.80
2008,08,26,15,43,16.80
2008,08,26,15,44,16.80
2008,08,26,15,45,16.80
2008,08,26,15,46,16.70
2008,08,26,15,47,16.70
2008,08,26,15,48,16.80
2008,08,26,15,49,16.80
2008,08,26,15,50,16.80
2008,08,26,15,51,16.80
2008,08,26,15,52,16.80
2008,08,26,15,53,16.70
2008,08,26,15,54,16.70
2008,08,26,15,55,16.70
2008,08,26,15,56,16.70
2008,08,26,15,57,16.70
2008,08,26,15,58,16.70
2008,08,26,15,59,16.70
2008,08,26,16,00,16.80
2008,08,26,16,01,16.80
2008,08,26,16,02,16.80
2008,08,26,16,03,16.80
2008,08,26,16,04,16.80
2008,08,26,16,05,16.80
2008,08,26,16,06,16.80
2008,08,26,16,07,16.70
2008,08,26,16,08,16.70
2008,08,26,16,09,16.60
2008,08,26,16,10,16.60
2008,08,26,16,11,16.50
2008,08,26,16,12,16.50
2008,08,26,16,13,16.40
2008,08,26,16,14,16.40
2008,08,26,16,15,16.40
2008,08,26,16,16,16.40
2008,08,26,16,17,16.50
2008,08,26,16,18,16.50
2008,08,26,16,19,16.50
2008,08,26,16,20,16.60
2008,08,26,16,21,16.60
2008,08,26,16,22,16.60
2008,08,26,16,23,16.60
2008,08,26,16,24,16.60
2008,08,26,16,25,16.50
2008,08,26,16,26,16.50
2008,08,26,16,27,16.50
2008,08,26,16,28,16.50
2008,08,26,16,29,16.50
2008,08,26,16,30,16.40
2008,08,26,16,31,16.40
2008,08,26,16,32,16.40
2008,08,26,16,33,16.40
2008,08,26,16,34,16.30
2008,08,26,16,35,16.30
2008,08,26,16,36,16.30
2008,08,26,16,37,16.30
2008,08,26,16,38,16.30
2008,08,26,16,39,16.40
2008,08,26,16,40,16.40
2008,08,26,16,41,16.40
2008,08,26,16,42,16.40
2008,08,26,16,43,16.30
2008,08,26,16,44,16.30
2008,08,26,16,45,16.30
2008,08,26,16,46,16.30
2008,08,26,16,47,16.30
2008,08,26,16,48,16.30
2008,08,26,16,49,16.30
2008,08,26,16,50,16.30
2008,08,26,16,51,16.20
2008,08,26,16,52,16.20
2008,08,26,16,53,16.20
2008,08,26,16,54,16.20
2008,08,26,16,55,16.20
2008,08,26,16,56,16.20
2008,08,26,16,57,16.20
2008,08,26,16,58,16.10
2008,08,26,16,59,16.10
2008,08,26,17,00,16.10
2008,08,26,17,01,16.10
2008,08,26,17,02,16.10
2008,08,26,17,03,16.00
2008,08,26,17,04,16.00
2008,08,26,17,05,16.00
2008,08,26,17,06,16.00
2008,08,26,17,07,15.90
2008,08,26,17,08,15.90
2008,08,26,17,09,15.90
2008,08,26,17,10,15.80
2008,08,26,17,11,15.80
2008,08,26,17,12,15.80
2008,08,26,17,13,15.80
2008,08,26,17,14,15.80
2008,08,26,17,15,15.70
2008,08,26,17,16,15.70
2008,08,26,17,17,15.70
2008,08,26,17,18,15.70
2008,08,26,17,19,15.70
2008,08,26,17,20,15.70
2008,08,26,17,21,15.60
2008,08,26,17,22,15.60
2008,08,26,17,23,15.60
2008,08,26,17,24,15.60
2008,08,26,17,25,15.60
2008,08,26,17,26,15.60
2008,08,26,17,27,15.50
2008,08,26,17,28,15.50
2008,08,26,17,29,15.50
2008,08,26,17,30,15.50
2008,08,26,17,31,15.50
2008,08,26,17,32,15.50
2008,08,26,17,33,15.50
2008,08,26,17,34,15.50
2008,08,26,17,35,15.50
2008,08,26,17,36,15.50
2008,08,26,17,37,15.40
2008,08,26,17,38,15.40
2008,08,26,17,39,15.40
2008,08,26,17,40,15.40
2008,08,26,17,41,15.30
2008,08,26,17,42,15.30
2008,08,26,17,43,15.30
2008,08,26,17,44,15.30
2008,08,26,17,45,15.20
2008,08,26,17,46,15.20
2008,08,26,17,47,15.20
2008,08,26,17,48,15.10
2008,08,26,17,49,15.10